Flag for Spain Weather past 2 weeks in Alicante, Spain

Now
66 °F

Passing clouds.


Feels Like: 66 °F
Forecast: 49 / 65 °F
Wind: 10 mph from East

Location: Alicante / El Altet

Current Time: Apr 1, 2015 at 1:44:10 PM

Latest Report: Apr 1, 2015 at 1:00 PM


Visibility: N/A

Pressure: 30.33 "Hg

Humidity: 60%

Dew point: 52 °F

Location of AlicanteLocation

Historic Weather in Alicante — Graph

°F

Alicante temperature yesterday

Maximum temperature yesterday: 77 °F (at 12:00 AM)
Minimum temperature yesterday: 61 °F (at 8:00 AM)
Average temperature yesterday: 71 °F

Past Weeks' High & Low Weather Summary

 TemperatureHumidityPressure
High90 °F (Mar 30, 4:00 PM)100% (Mar 21, 8:00 AM)30.33 "Hg (Mar 21, 8:00 AM)
Low45 °F (Mar 26, 6:30 AM)14% (Mar 30, 4:00 PM)29.56 "Hg (Mar 24, 5:00 AM)
Average60 °F68%29.95 "Hg
* Reported Mar 17 11:00 AM — Apr 1 12:30 PM, Alicante, Weather by CustomWeather, © 2015

Note: Actual official high and low records may vary slightly from our data, if they occured in-between our weather recording intervals... More about our weather records

Advertising

Alicante weather history for previous 24 hours

 ConditionsComfort  
Time TempWeatherWind HumidityBarometerVisibility
12:30 PM
Wed, Apr 1
66 °FPassing clouds.9 mph60%30.33 "HgN/A
12:00 PM66 °FPassing clouds.9 mph68%30.33 "HgN/A
11:30 AM64 °FPassing clouds.9 mph68%30.33 "HgN/A
11:00 AM64 °FSunny.12 mph64%30.33 "Hg10 mi
10:30 AM64 °FPassing clouds.9 mph64%30.30 "HgN/A
10:00 AM64 °FSunny.13 mph60%30.30 "Hg10 mi
9:30 AM63 °FSunny.12 mph68%30.30 "Hg10 mi
9:00 AM61 °FSunny.6 mph72%30.27 "Hg10 mi
8:30 AM59 °FClear.No wind82%30.27 "Hg10 mi
8:00 AM55 °FClear.No wind88%30.27 "Hg10 mi
7:30 AM57 °FClear.No wind82%30.24 "Hg10 mi
7:00 AM55 °FClear.No wind88%30.24 "Hg10 mi
6:30 AM59 °FClear.1 mph82%30.21 "Hg10 mi
6:00 AM61 °FClear.3 mph83%30.21 "Hg10 mi
5:30 AM61 °FClear.7 mph88%30.21 "Hg10 mi
4:30 AM59 °FClear.2 mph68%30.21 "Hg10 mi
4:00 AM59 °FClear.1 mph68%30.21 "Hg10 mi
3:30 AM61 °FClear.No wind63%30.21 "Hg10 mi
3:00 AM61 °FClear.No wind63%30.21 "Hg10 mi
2:30 AM59 °FPassing clouds.3 mph68%30.21 "HgN/A
2:00 AM61 °FClear.No wind63%30.21 "Hg10 mi
1:30 AM61 °FClear.No wind63%30.21 "Hg10 mi
1:00 AM64 °FClear.No wind56%30.21 "Hg10 mi
12:30 AM64 °FClear.No wind56%30.21 "Hg10 mi
12:00 AM63 °FClear.1 mph59%30.21 "Hg10 mi
11:30 PM
Tue, Mar 31
64 °FClear.No wind64%30.21 "Hg10 mi
11:00 PM64 °FClear.No wind68%30.21 "Hg10 mi
10:30 PM64 °FClear.No wind68%30.21 "Hg10 mi
10:00 PM68 °FClear.1 mph64%30.21 "Hg10 mi
9:30 PM66 °FClear.No wind68%30.18 "Hg10 mi
9:00 PM66 °FSunny.No wind73%30.18 "Hg10 mi
8:30 PM68 °FSunny.1 mph64%30.18 "Hg10 mi
8:00 PM70 °FPassing clouds.3 mph53%30.18 "HgN/A
7:30 PM72 °FPassing clouds.5 mph53%30.18 "HgN/A
7:00 PM70 °FPassing clouds.5 mph57%30.18 "HgN/A
6:30 PM70 °FPassing clouds.7 mph60%30.18 "HgN/A
6:00 PM72 °FPassing clouds.8 mph53%30.18 "HgN/A
5:30 PM73 °FPassing clouds.8 mph50%30.18 "HgN/A
5:00 PM73 °FPassing clouds.8 mph50%30.18 "HgN/A
4:30 PM73 °FPassing clouds.10 mph50%30.18 "HgN/A
4:00 PM75 °FPassing clouds.9 mph44%30.21 "HgN/A
3:30 PM77 °FPassing clouds.9 mph36%30.21 "HgN/A
3:00 PM75 °FSunny.8 mph36%30.21 "Hg10 mi
2:30 PM75 °FPassing clouds.8 mph39%30.24 "HgN/A
2:00 PM75 °FPassing clouds.8 mph41%30.24 "HgN/A
1:30 PM75 °FPassing clouds.9 mph41%30.24 "HgN/A
1:00 PM75 °FPassing clouds.7 mph36%30.27 "HgN/A
Weather by CustomWeather, © 2015

See weather overviewHow to use our weather pages